{"data":{"norad_id":64366,"epoch":"2026-09-20T10:13:00.275232Z","epoch_age_seconds":140776,"freshness":"FRESH","line1":"1 64366U 25126Y   26263.42569763  .00014021  00000+0  49105-3 0  9991","line2":"2 64366  70.0008 260.9719 0004000 270.2784  89.7933 15.29592156 71125","mean_motion":15.29592156,"eccentricity":0.0004,"inclination_deg":70.0008,"raan_deg":260.9719,"arg_perigee_deg":270.2784,"mean_anomaly_deg":89.7933,"bstar":0.00049105,"rev_number":7112,"period_min":94.142742191207,"perigee_km":474.28851600178,"apogee_km":479.77265006821,"semimajor_km":6855.167583035,"source":"CELESTRAK","updated_at":"2026-09-21T09:00:35.320715Z"}}